Columbus, OH

9:48 AM EST on December 04, 2016 (GMT -0500)
Ohio State University

Weather History for KOSU - July, 2013

Change the Weather History Date:

Friday, July 5, 2013

  Actual Average Record
Temperature  
Mean Temperature 72 °F -  
Max Temperature 79 °F 81 °F 96 °F (2012)
Min Temperature 66 °F 61 °F 53 °F (2014)
Cooling Degree Days 7    
Growing Degree Days 22 (Base 50)    
Moisture  
Dew Point 67 °F    
Average Humidity 91    
Maximum Humidity 100    
Minimum Humidity 66    
Precipitation  
Precipitation 0.61 in - - ()
Sea Level Pressure  
Sea Level Pressure 30.14 in    
Wind  
Wind Speed 7 mph (South)    
Max Wind Speed 10 mph    
Max Gust Speed -    
Visibility 7 miles    
Events Rain    
Averages and records for this station are not official NWS values.
T = Trace of Precipitation, MM = Missing Value Source: NWS Daily Summary

Daily Weather History Graph

Daily Weather History Graph

Search for Another Location

Airport or City:

Trip Planner

Search our weather history database for the weather conditions in past years. The results will help you decide how hot, cold, wet, or windy it might be!

Date:

Astronomy

Jul. 05, 2013 Rise Set
Actual Time 6:09 AM EDT 9:04 PM EDT
Civil Twilight 5:36 AM EDT 9:36 PM EDT
Nautical Twilight 4:55 AM EDT 10:18 PM EDT
Astronomical Twilight 4:07 AM EDT 11:05 PM EDT
Moon 4:07 AM EDT (7/5) 6:58 PM EDT (7/5)
Length of Visible Light 16h 00m
Length of Day
14h 55m
Waning Crescent, 6% of the Moon is Illuminated
Jul 5
Waning Crescent
Jul 8
New
Jul 15
First Quarter
Jul 22
Full
Jul 29
Last Quarter

Hourly Weather History & Observations

Time (EDT) Temp. Dew Point Humidity Pressure Visibility Wind Dir Wind Speed Gust Speed Precip Events Conditions
12:02 AM 71.6 °F 69.8 °F 94% 30.13 in 2.5 mi SSE 8.1 mph - 0.03 in Rain Rain
12:06 AM 71.6 °F 69.8 °F 94% 30.14 in 3.0 mi SSE 8.1 mph - 0.05 in Rain Rain
12:13 AM 71.6 °F 69.8 °F 94% 30.13 in 2.0 mi SSE 8.1 mph - 0.11 in Rain Heavy Rain
12:23 AM 71.6 °F 69.8 °F 94% 30.14 in 4.0 mi South 6.9 mph - 0.13 in Rain Rain
12:43 AM 69.8 °F 69.8 °F 100% 30.13 in 2.5 mi SSE 6.9 mph - 0.24 in Rain Heavy Rain
12:53 AM 70.0 °F 69.1 °F 97% 30.11 in 4.0 mi SE 4.6 mph - 0.28 in Rain Rain
1:14 AM 69.8 °F 69.8 °F 100% 30.12 in 6.0 mi SE 6.9 mph - 0.04 in Rain Light Rain
1:20 AM 69.8 °F 69.8 °F 100% 30.12 in 6.0 mi SE 9.2 mph - 0.05 in Rain Light Rain
1:53 AM 69.1 °F 68.0 °F 96% 30.10 in 10.0 mi SE 10.4 mph - 0.06 in Rain Light Rain
2:53 AM 69.1 °F 68.0 °F 96% 30.09 in 10.0 mi SSE 9.2 mph - 0.00 in   Scattered Clouds
3:03 AM 69.8 °F 68.0 °F 94% 30.11 in 10.0 mi SSE 9.2 mph - 0.00 in Rain Light Rain
3:27 AM 69.8 °F 68.0 °F 94% 30.11 in 10.0 mi South 9.2 mph - 0.00 in   Mostly Cloudy
3:53 AM 69.1 °F 68.0 °F 96% 30.10 in 10.0 mi South 8.1 mph - 0.00 in   Overcast
4:34 AM 69.8 °F 68.0 °F 94% 30.12 in 10.0 mi SSW 3.5 mph - 0.00 in   Mostly Cloudy
4:45 AM 69.8 °F 68.0 °F 94% 30.12 in 10.0 mi SW 8.1 mph - 0.00 in Rain Light Rain
4:53 AM 69.1 °F 66.9 °F 93% 30.10 in 10.0 mi SW 6.9 mph - 0.00 in Rain Light Rain
5:06 AM 69.8 °F 66.2 °F 88% 30.12 in 10.0 mi SW 4.6 mph - 0.00 in   Overcast
5:30 AM 68.0 °F 66.2 °F 94% 30.13 in 10.0 mi SW 5.8 mph - 0.00 in Rain Light Rain
5:53 AM 68.0 °F 66.0 °F 93% 30.12 in 10.0 mi SW 4.6 mph - 0.00 in Rain Light Rain
6:00 AM 68.0 °F 66.2 °F 94% 30.13 in 10.0 mi SW 4.6 mph - 0.00 in Rain Light Rain
6:53 AM 68.0 °F 66.0 °F 93% 30.12 in 10.0 mi South 4.6 mph - 0.01 in Rain Light Rain
7:53 AM 68.0 °F 66.0 °F 93% 30.13 in 10.0 mi South 4.6 mph - 0.01 in   Overcast
8:23 AM 66.2 °F 66.2 °F 100% 30.16 in 1.8 mi SSW 8.1 mph - 0.04 in Rain Rain
8:30 AM 66.2 °F 66.2 °F 100% 30.16 in 1.0 mi SSW 5.8 mph - 0.08 in Rain Heavy Rain
8:42 AM 66.2 °F 66.2 °F 100% 30.16 in 2.0 mi SSW 4.6 mph - 0.13 in Rain Rain
8:51 AM 66.2 °F 66.2 °F 100% 30.16 in 1.8 mi SSW 5.8 mph - 0.15 in Rain Rain
8:53 AM 66.9 °F 66.0 °F 97% 30.15 in 1.8 mi South 5.8 mph - 0.16 in Rain Rain
9:23 AM 66.2 °F 66.2 °F 100% 30.16 in 2.0 mi SW 4.6 mph - 0.04 in Rain Light Rain
9:34 AM 66.2 °F 66.2 °F 100% 30.16 in 3.0 mi South 5.8 mph - 0.05 in Rain Light Rain
9:48 AM 68.0 °F 66.2 °F 94% 30.16 in 5.0 mi SSE 3.5 mph - 0.05 in Rain Light Rain
9:53 AM 68.0 °F 66.9 °F 96% 30.15 in 2.0 mi South 5.8 mph - 0.05 in Rain Light Rain
10:02 AM 68.0 °F 66.2 °F 94% 30.17 in 2.0 mi South 5.8 mph - 0.02 in Rain Rain
10:14 AM 68.0 °F 66.2 °F 94% 30.17 in 2.0 mi SSW 4.6 mph - 0.02 in Rain Light Rain
10:18 AM 68.0 °F 66.2 °F 94% 30.17 in 2.0 mi South 4.6 mph - 0.02 in Rain Light Rain
10:24 AM 68.0 °F 66.2 °F 94% 30.17 in 8.0 mi SSW 4.6 mph - 0.02 in Rain Light Rain
10:38 AM 69.8 °F 66.2 °F 88% 30.17 in 10.0 mi SSW 4.6 mph - 0.02 in Rain Light Rain
10:49 AM 68.0 °F 66.2 °F 94% 30.17 in 1.8 mi SW 6.9 mph - 0.03 in Rain Light Rain
10:53 AM 68.0 °F 66.0 °F 93% 30.16 in 1.5 mi SW 5.8 mph - 0.03 in Rain Light Rain
11:01 AM 69.8 °F 66.2 °F 88% 30.17 in 3.0 mi SW 4.6 mph - 0.00 in Rain Light Rain
11:44 AM 69.8 °F 66.2 °F 88% 30.18 in 10.0 mi SSW 4.6 mph - 0.00 in Rain Light Rain
11:53 AM 70.0 °F 66.9 °F 90% 30.16 in 10.0 mi South 4.6 mph - 0.00 in Rain Light Rain
12:53 PM 72.0 °F 66.9 °F 84% 30.15 in 10.0 mi SSW 6.9 mph - 0.01 in   Overcast
1:00 PM 71.6 °F 66.2 °F 83% 30.16 in 10.0 mi WSW 4.6 mph - N/A   Overcast
1:51 PM 71.6 °F 66.2 °F 83% 30.16 in 10.0 mi SW 4.6 mph - 0.00 in   Overcast
1:53 PM 72.0 °F 66.9 °F 84% 30.15 in 10.0 mi WSW 4.6 mph - 0.00 in   Overcast
2:53 PM 75.0 °F 66.0 °F 73% 30.14 in 10.0 mi South 8.1 mph - N/A   Overcast
3:53 PM 75.9 °F 66.0 °F 71% 30.11 in 10.0 mi South 4.6 mph - N/A   Overcast
4:53 PM 75.9 °F 66.0 °F 71% 30.12 in 10.0 mi SSW 5.8 mph - N/A   Partly Cloudy
5:53 PM 78.1 °F 66.0 °F 66% 30.11 in 10.0 mi SSW 9.2 mph - N/A   Overcast
6:53 PM 75.9 °F 66.9 °F 74% 30.10 in 10.0 mi SSW 4.6 mph - N/A   Partly Cloudy
7:53 PM 75.0 °F 66.9 °F 76% 30.12 in 10.0 mi South 6.9 mph - N/A   Partly Cloudy
8:53 PM 73.9 °F 68.0 °F 82% 30.11 in 10.0 mi South 4.6 mph - N/A   Scattered Clouds
9:53 PM 73.0 °F 68.0 °F 84% 30.12 in 10.0 mi South 5.8 mph - N/A   Clear
10:53 PM 72.0 °F 68.0 °F 87% 30.13 in 10.0 mi South 5.8 mph - N/A   Clear
11:53 PM 72.0 °F 69.1 °F 91% 30.14 in 10.0 mi South 6.9 mph - N/A   Clear